Forecast Directory
U.S. Alerts
El Dorado Weather Logo
U.S. Radar Loop Conditions Map

U.S. Color Satellite North America Color Infrared Animated Satellite Loop

Interactive Wx Map Live U.S. Google Map Radar Thumbnail Image

US Precipitation 1 day, 24 hour precipitation map

US Temperatures US Conditions Map

US Climate Data US Conditions Map


NOAA NWS Hourly Roundups by Site
Regional Weather Roundup for Sacramento, CA
Select Site:  

000
ASUS46 KSTO 252215
RWRCA

NORTHERN AND CENTRAL CA REGIONAL WEATHER ROUNDUP
NATIONAL WEATHER SERVICE SACRAMENTO CA
200 PM PST TUE JAN 25 2022

NOTE: FAIR INDICATES FEW OR NO CLOUDS BELOW 12,000 FEET WITH NO
SIGNIFICANT WEATHER AND/OR OBSTRUCTIONS TO VISIBILITY.

CAZ001-003-252300-
NORTHWEST AREA

CITY           SKY/WX    TMP DP  RH WIND       PRES   REMARKS
CRESCENT CITY  SUNNY     51  46  83 NW7       30.05F HAZE
UKIAH          SUNNY     65  36  34 CALM      29.99F
$$

CAZ006-505>513-252300-
BAY AREA

CITY           SKY/WX    TMP DP  RH WIND       PRES   REMARKS
SANTA ROSA     SUNNY     61  45  55 S6        30.00F
SAN RAFAEL     N/A       58  MM  MM MISG
NAPA           SUNNY     56  47  71 S6        30.00F
CONCORD        SUNNY     61  48  62 N5        30.00F
OAKLAND CITY   N/A       54  MM  MM MISG
OAKLAND        SUNNY     57  47  69 W7        30.02F
SAN FRAN CITY  N/A       55  MM  68 MISG
SAN FRAN ARPT  MOSUNNY   57  47  69 NW15      30.01F
LIVERMORE      SUNNY     65  32  29 N8        29.99F
HAYWARD        SUNNY     57  46  66 VRB5      30.01F
SAN JOSE ARPT  SUNNY     61  43  51 N5        30.00F
$$
CAZ034-037-514>518-252300-
CENTRAL COAST

CITY           SKY/WX    TMP DP  RH WIND       PRES   REMARKS
WATSONVILLE    SUNNY     64  46  52 CALM      30.00F
SALINAS        SUNNY     64  44  48 NW5       29.98F
MONTEREY       SUNNY     57  45  64 VRB3      30.00F
SAN LUIS OBISP SUNNY     72  40  31 NW13      29.92F
SANTA MARIA    SUNNY     65  42  43 CALM      29.95F
HALF MOON BAY  FAIR      54  50  87 N14G22    30.01F
$$
CAZ015-016-252300-
NORTHERN SACRAMENTO VALLEY

CITY           SKY/WX    TMP DP  RH WIND       PRES   REMARKS
REDDING        SUNNY     68  22  17 N16G25    30.04F
RED BLUFF      SUNNY     68  22  17 N20       30.05F
OROVILLE       SUNNY     67  34  29 NW15G24   29.99F
$$
CAZ016>018-252300-
SOUTHERN SACRAMENTO VALLEY

CITY           SKY/WX    TMP DP  RH WIND       PRES   REMARKS
AUBURN         SUNNY     63  41  45 W7G14     29.97F
BEALE AFB      SUNNY     67  35  30 NW18      29.94F
LINCOLN        FAIR      64  36  34 NW5       29.96F
MARYSVILLE     SUNNY     67  33  28 N21G29    29.96F
SAC INTL ARPT  SUNNY     67  34  29 N17       29.97F
MATHER AIRPORT NOT AVBL
DOWNTOWN SAC   N/A       64  MM  MM MISG
SAC EXEC ARPT  SUNNY     64  42  44 E5        29.98F
VACAVILLE      SUNNY     69  29  22 N8G20     30.00F
TRAVIS AFB     SUNNY     70  28  21 W10       29.98F
$$
CAZ019>021-252300-
SAN JOAQUIN VALLEY

CITY           SKY/WX    TMP DP  RH WIND       PRES   REMARKS
STOCKTON       SUNNY     60  41  49 NE6       29.99F
MODESTO        SUNNY     59  40  49 VRB3      29.99F
MERCED         SUNNY     59  45  59 CALM      30.01F
LEMOORE        SUNNY     62  40  44 VRB3      30.01F
FRESNO         SUNNY     60  42  51 SE5       30.02F HAZE
HANFORD        SUNNY     61  42  49 VRB3      30.01F
PORTERVILLE    SUNNY     62  43  49 MISG      30.01F
BAKERSFIELD    SUNNY     62  41  46 N6        29.99F HAZE
$$
CAZ011-012-071-252300-
NORTHERN MOUNTAINS

CITY           SKY/WX    TMP DP  RH WIND       PRES   REMARKS
YREKA          SUNNY     51  25  36 CALM      30.18F
MOUNT SHASTA   SUNNY     53  21  28 VRB5      30.14F
ALTURAS        SUNNY     46  15  28 E3        30.20F
$$
CAZ011-012-071-252300-
SIERRA NEVADA MTNS

CITY           SKY/WX    TMP DP  RH WIND       PRES   REMARKS
BLUE CANYON    SUNNY     49   8  19 E8G17     30.05F
TRUCKEE        SUNNY     39  19  45 N5        30.14F
TAHOE VLY ARPT SUNNY     40   7  25 E8        30.11F WCI  34
MAMMOTH LAKES  FAIR      37   9  30 N7        30.17F WCI  32
$$


 

View Past Reports for Sacramento, CA.

Products Courtesy of NOAA-NWS
NWS Information Parsing Script by Ken True at Saratoga Weather - Script by SE Lincoln Weather.



Contact Us | Mobile
Never base any life decisions on weather information from this site or anywhere over the Internet.
Site is dedicated to our Lord & Savior Jesus Christ | Random Quotes of Jesus

Copyright © 2022 El Dorado Weather, Inc. | Site Designed By:  El Dorado Weather